Location: *
(43.7000°S, 168.7000°W)
Time: 14:49:37
(UTC+00:00)

Meteor 1-21 - Pass Details

Date: 07 July 2020
Orbit: 845 x 887 km, 81.2° (Epoch: 04 August)

Event Time Altitude Azimuth Distance (km) Brightness Sun altitude
Rises 17:26:31 0° 336° (NNW) 3,485 7.3 -14.2°
Reaches altitude 10° 17:29:03 10° 330° (NNW) 2,551 6.6 -13.7°
Maximum altitude 17:34:40 50° 255° (WSW) 1,127 4.5 -12.8°
Drops below altitude 10° 17:40:20 10° 180° (S) 2,558 6.5 -11.8°
Sets 17:42:52 0° 174° (S) 3,496 7.3 -11.4°
